Flag for U.S.A. Weather past 2 weeks in Riverside, California, U.S.A.

Now
75 °F

Sunny.


Feels Like: 77 °F
Forecast: 62 / 85 °F
Wind: 6 mph from West

Location: Riverside Municipal Airport

Current Time: Jul 5, 2015 at 12:43:58 PM

Latest Report: Jul 5, 2015 at 11:53 AM


Visibility: 9 mi

Pressure: 29.95 "Hg

Humidity: 60%

Dew point: 60 °F

Location of RiversideLocation

Historic Weather in Riverside — Graph

°F

Riverside temperature yesterday

Maximum temperature yesterday: 87 °F (at 1:53 PM)
Minimum temperature yesterday: 64 °F (at 4:53 AM)
Average temperature yesterday: 74 °F

Past Weeks' High & Low Weather Summary

 TemperatureHumidityPressure
High101 °F (Jun 28, 3:53 PM)87% (Jul 5, 3:53 AM)29.99 "Hg (Jul 5, 3:53 AM)
Low63 °F (Jun 25, 5:53 AM)18% (Jun 20, 12:53 PM)29.76 "Hg (Jun 20, 1:53 PM)
Average79 °F48%29.86 "Hg
* Reported Jun 20 10:53 AM — Jul 5 10:53 AM, Riverside, Weather by CustomWeather, © 2015

Note: Actual official high and low records may vary slightly from our data, if they occured in-between our weather recording intervals... More about our weather records

Advertising

Riverside weather history for previous 24 hours

 ConditionsComfort  
Time TempWeatherWind HumidityBarometerVisibility
10:53 AM
Sun, Jul 5
71 °FScattered clouds.3 mph68%29.95 "Hg6 mi
10:00 AM68 °FOvercast.No wind73%29.99 "Hg4 mi
8:53 AM67 °FLow clouds.5 mph76%29.95 "Hg3 mi
7:53 AM65 °FLow clouds.No wind81%29.94 "Hg3 mi
6:53 AM64 °FLow clouds.5 mph84%29.93 "Hg4 mi
5:53 AM64 °FLow clouds.No wind84%29.91 "Hg5 mi
4:53 AM63 °FOvercast.5 mph87%29.90 "Hg7 mi
3:53 AM63 °FClear.5 mph87%29.89 "Hg10 mi
2:53 AM64 °FClear.6 mph84%29.89 "Hg10 mi
1:53 AM65 °FClear.5 mph78%29.89 "Hg10 mi
12:53 AM65 °FClear.5 mph78%29.90 "Hg10 mi
11:53 PM
Sat, Jul 4
65 °FClear.3 mph78%29.90 "Hg10 mi
10:53 PM66 °FClear.6 mph75%29.90 "Hg10 mi
9:53 PM68 °FClear.6 mph70%29.89 "Hg10 mi
8:53 PM70 °FSunny.9 mph66%29.85 "Hg10 mi
7:53 PM74 °FSunny.10 mph60%29.82 "Hg10 mi
6:53 PM80 °FSunny.10 mph45%29.79 "Hg10 mi
5:53 PM83 °FSunny.9 mph43%29.79 "Hg10 mi
4:53 PM84 °FSunny.14 mph38%29.79 "Hg10 mi
3:53 PM87 °FSunny.9 mph35%29.80 "Hg10 mi
2:53 PM87 °FSunny.14 mph35%29.81 "Hg10 mi
1:53 PM87 °FScattered clouds.10 mph37%29.82 "Hg10 mi
12:53 PM84 °FSunny.9 mph43%29.83 "Hg10 mi
Weather by CustomWeather, © 2015

See weather overviewHow to use our weather pages